Time,TemperatureF,DewpointF,PressureIn,WindDirection,WindDirectionDegrees,WindSpeedMPH,WindSpeedGustMPH,Humidity,HourlyPrecipIn,Conditions,Clouds,dailyrainin,SolarRadiationWatts/m^2,SoftwareType,DateUTC
2013-03-14 00:02:00,45.3,44.0,30.17,NW,323,0.0,1.0,94,0.00,,,0.29,0,weatherlink.com 1.10,2013-03-14 07:02:00,
2013-03-14 00:32:00,45.4,44.0,30.17,NW,323,0.0,0.0,94,0.00,,,0.29,0,weatherlink.com 1.10,2013-03-14 07:32:00,
2013-03-14 00:47:00,45.2,44.0,30.18,NW,323,0.0,0.0,94,0.00,,,0.00,0,weatherlink.com 1.10,2013-03-14 07:47:00,
2013-03-14 01:02:00,44.7,43.0,30.18,NW,323,0.0,0.0,94,0.00,,,0.00,0,weatherlink.com 1.10,2013-03-14 08:02:00,
2013-03-14 01:32:00,44.2,43.0,30.17,NW,323,1.0,1.0,94,0.00,,,0.00,0,weatherlink.com 1.10,2013-03-14 08:32:00,
2013-03-14 02:45:00,43.2,42.0,30.18,NW,323,0.0,0.0,95,0.00,,,0.00,0,weatherlink.com 1.10,2013-03-14 09:45:00,
2013-03-14 03:06:00,43.5,42.0,30.17,NW,323,1.0,2.0,95,0.00,,,0.00,0,weatherlink.com 1.10,2013-03-14 10:06:00,
2013-03-14 03:33:00,43.7,42.0,30.16,NW,323,0.0,1.0,95,0.00,,,0.00,0,weatherlink.com 1.10,2013-03-14 10:33:00,
2013-03-14 03:48:00,43.8,43.0,30.16,NW,323,1.0,2.0,95,0.00,,,0.00,0,weatherlink.com 1.10,2013-03-14 10:48:00,
2013-03-14 04:03:00,43.7,42.0,30.16,NW,323,1.0,2.0,95,0.00,,,0.00,0,weatherlink.com 1.10,2013-03-14 11:03:00,
2013-03-14 04:18:00,44.5,43.0,30.16,NW,323,0.0,5.0,95,0.00,,,0.00,0,weatherlink.com 1.10,2013-03-14 11:18:00,
2013-03-14 04:33:00,44.5,43.0,30.15,NW,323,0.0,1.0,95,0.00,,,0.00,0,weatherlink.com 1.10,2013-03-14 11:33:00,
2013-03-14 04:48:00,44.6,43.0,30.15,NW,323,0.0,2.0,95,0.00,,,0.00,0,weatherlink.com 1.10,2013-03-14 11:48:00,
2013-03-14 05:18:00,44.3,43.0,30.16,NW,323,0.0,1.0,95,0.00,,,0.00,0,weatherlink.com 1.10,2013-03-14 12:18:00,
2013-03-14 05:40:00,44.0,43.0,30.16,NW,323,0.0,1.0,95,0.00,,,0.00,0,weatherlink.com 1.10,2013-03-14 12:40:00,
2013-03-14 05:49:00,44.5,45.0,30.16,SE,140,0.0,1.0,100,0.00,,,0.00,,weatherlink.com 1.10,2013-03-14 12:49:00,
2013-03-14 06:04:00,44.5,45.0,30.17,SE,140,0.0,0.0,100,0.00,,,0.00,,weatherlink.com 1.10,2013-03-14 13:04:00,
2013-03-14 06:19:00,44.6,45.0,30.17,SE,140,0.0,0.0,100,0.00,,,0.00,,weatherlink.com 1.10,2013-03-14 13:19:00,
2013-03-14 06:34:00,44.3,44.0,30.17,SE,140,0.0,0.0,100,0.00,,,0.00,,weatherlink.com 1.10,2013-03-14 13:34:00,
2013-03-14 06:49:00,44.5,45.0,30.18,SE,140,0.0,0.0,100,0.00,,,0.00,,weatherlink.com 1.10,2013-03-14 13:49:00,
2013-03-14 07:04:00,44.3,44.0,30.17,SE,140,0.0,1.0,100,0.00,,,0.00,,weatherlink.com 1.10,2013-03-14 14:04:00,
2013-03-14 07:19:00,44.8,45.0,30.17,SE,139,0.0,3.0,100,0.00,,,0.00,,weatherlink.com 1.10,2013-03-14 14:19:00,
2013-03-14 07:34:00,45.1,45.0,30.17,ESE,122,0.0,1.0,100,0.00,,,0.00,,weatherlink.com 1.10,2013-03-14 14:34:00,
2013-03-14 07:49:00,45.1,45.0,30.18,ESE,122,0.0,0.0,100,0.00,,,0.00,,weatherlink.com 1.10,2013-03-14 14:49:00,
2013-03-14 08:04:00,45.2,45.0,30.19,ESE,105,0.0,2.0,100,0.00,,,0.00,,weatherlink.com 1.10,2013-03-14 15:04:00,
2013-03-14 08:19:00,45.4,45.0,30.19,ESE,105,0.0,0.0,100,0.00,,,0.00,,weatherlink.com 1.10,2013-03-14 15:19:00,
2013-03-14 08:34:00,45.7,46.0,30.20,NW,311,0.0,0.0,100,0.00,,,0.00,,weatherlink.com 1.10,2013-03-14 15:34:00,
2013-03-14 08:49:00,46.2,46.0,30.21,NW,311,0.0,0.0,100,0.00,,,0.00,,weatherlink.com 1.10,2013-03-14 15:49:00,
2013-03-14 09:04:00,47.4,47.0,30.21,NW,311,0.0,2.0,100,0.00,,,0.00,,weatherlink.com 1.10,2013-03-14 16:04:00,
2013-03-14 09:19:00,48.2,48.0,30.21,NW,311,0.0,1.0,100,0.00,,,0.00,,weatherlink.com 1.10,2013-03-14 16:19:00,
2013-03-14 09:34:00,48.2,48.0,30.21,SW,225,0.0,1.0,100,0.00,,,0.00,,weatherlink.com 1.10,2013-03-14 16:34:00,
2013-03-14 09:49:00,48.6,49.0,30.23,SW,225,0.0,1.0,100,0.00,,,0.00,,weatherlink.com 1.10,2013-03-14 16:49:00,
2013-03-14 10:04:00,49.4,49.0,30.23,NNW,332,0.0,5.0,100,0.00,,,0.00,,weatherlink.com 1.10,2013-03-14 17:04:00,
2013-03-14 10:34:00,52.8,53.0,30.23,SSW,200,0.0,1.0,100,0.00,,,0.00,,weatherlink.com 1.10,2013-03-14 17:34:00,
2013-03-14 10:49:00,52.5,53.0,30.24,WNW,287,0.0,2.0,100,0.00,,,0.00,,weatherlink.com 1.10,2013-03-14 17:49:00,
2013-03-14 11:04:00,53.5,54.0,30.24,WNW,288,0.0,1.0,100,0.00,,,0.00,,weatherlink.com 1.10,2013-03-14 18:04:00,
2013-03-14 11:19:00,56.2,56.0,30.24,West,278,0.0,1.0,100,0.00,,,0.00,,weatherlink.com 1.10,2013-03-14 18:19:00,
2013-03-14 11:34:00,57.6,57.0,30.23,West,276,0.0,1.0,98,0.00,,,0.00,,weatherlink.com 1.10,2013-03-14 18:34:00,
2013-03-14 11:49:00,60.9,58.0,30.23,West,275,0.0,1.0,90,0.00,,,0.00,,weatherlink.com 1.10,2013-03-14 18:49:00,
2013-03-14 12:05:00,62.1,58.0,30.23,West,271,0.0,1.0,85,0.00,,,0.00,,weatherlink.com 1.10,2013-03-14 19:05:00,
2013-03-14 12:20:00,62.7,57.0,30.23,WNW,298,0.0,4.0,81,0.00,,,0.00,,weatherlink.com 1.10,2013-03-14 19:20:00,
2013-03-14 12:35:00,63.2,55.0,30.24,WNW,295,1.0,5.0,74,0.00,,,0.00,,weatherlink.com 1.10,2013-03-14 19:35:00,
2013-03-14 12:50:00,59.5,53.0,30.24,NW,305,3.0,8.0,78,0.00,,,0.00,,weatherlink.com 1.10,2013-03-14 19:50:00,
2013-03-14 13:05:00,58.7,52.0,30.23,NNW,330,2.0,6.0,78,0.00,,,0.00,,weatherlink.com 1.10,2013-03-14 20:05:00,
2013-03-14 13:20:00,56.0,52.0,30.25,WNW,298,2.0,9.0,86,0.00,,,0.00,,weatherlink.com 1.10,2013-03-14 20:20:00,
2013-03-14 13:35:00,54.5,50.0,30.23,NW,321,6.0,15.0,86,0.00,,,0.00,,weatherlink.com 1.10,2013-03-14 20:35:00,
2013-03-14 13:50:00,55.6,52.0,30.23,NW,313,5.0,14.0,88,0.00,,,0.00,,weatherlink.com 1.10,2013-03-14 20:50:00,
2013-03-14 14:05:00,57.2,52.0,30.23,North,351,9.0,12.0,84,0.00,,,0.00,,weatherlink.com 1.10,2013-03-14 21:05:00,
2013-03-14 14:20:00,57.8,52.0,30.22,NNW,347,9.0,14.0,81,0.00,,,0.00,,weatherlink.com 1.10,2013-03-14 21:20:00,
2013-03-14 14:35:00,57.6,52.0,30.21,NNW,335,5.0,12.0,81,0.00,,,0.00,,weatherlink.com 1.10,2013-03-14 21:35:00,
2013-03-14 14:50:00,57.8,52.0,30.22,NNW,331,7.0,10.0,81,0.00,,,0.00,,weatherlink.com 1.10,2013-03-14 21:50:00,
2013-03-14 15:05:00,55.3,50.0,30.22,NW,305,8.0,12.0,83,0.00,,,0.00,,weatherlink.com 1.10,2013-03-14 22:05:00,
2013-03-14 15:20:00,56.2,51.0,30.23,NNW,342,5.0,11.0,83,0.00,,,0.00,,weatherlink.com 1.10,2013-03-14 22:20:00,
2013-03-14 15:35:00,53.2,49.0,30.23,NNW,340,10.0,15.0,86,0.00,,,0.00,,weatherlink.com 1.10,2013-03-14 22:35:00,
2013-03-14 15:50:00,53.8,50.0,30.22,NNW,338,6.0,10.0,87,0.00,,,0.00,,weatherlink.com 1.10,2013-03-14 22:50:00,
2013-03-14 16:05:00,54.4,51.0,30.22,NW,319,3.0,9.0,87,0.00,,,0.00,,weatherlink.com 1.10,2013-03-14 23:05:00,
2013-03-14 16:20:00,55.1,51.0,30.21,NW,317,0.0,9.0,85,0.00,,,0.00,,weatherlink.com 1.10,2013-03-14 23:20:00,
2013-03-14 16:35:00,56.3,52.0,30.21,NW,315,3.0,5.0,84,0.00,,,0.00,,weatherlink.com 1.10,2013-03-14 23:35:00,
2013-03-14 16:50:00,56.9,52.0,30.20,NNW,330,0.0,1.0,84,0.00,,,0.00,,weatherlink.com 1.10,2013-03-14 23:50:00,
2013-03-14 17:05:00,55.6,50.0,30.19,NW,322,2.0,7.0,82,0.00,,,0.00,,weatherlink.com 1.10,2013-03-15 00:05:00,
2013-03-14 17:20:00,55.7,51.0,30.19,NNW,331,3.0,6.0,83,0.00,,,0.00,,weatherlink.com 1.10,2013-03-15 00:20:00,
2013-03-14 17:35:00,57.3,52.0,30.19,NNW,329,0.0,1.0,81,0.00,,,0.00,,weatherlink.com 1.10,2013-03-15 00:35:00,
2013-03-14 17:50:00,56.0,51.0,30.19,NNW,329,0.0,7.0,82,0.00,,,0.00,,weatherlink.com 1.10,2013-03-15 00:50:00,
2013-03-14 18:05:00,54.7,50.0,30.19,NNW,329,0.0,8.0,84,0.00,,,0.00,,weatherlink.com 1.10,2013-03-15 01:05:00,
2013-03-14 18:20:00,54.5,50.0,30.19,NW,312,1.0,5.0,85,0.00,,,0.00,,weatherlink.com 1.10,2013-03-15 01:20:00,
2013-03-14 18:35:00,53.3,49.0,30.19,NW,311,6.0,8.0,86,0.00,,,0.00,,weatherlink.com 1.10,2013-03-15 01:35:00,
2013-03-14 18:50:00,-999.0,-99.9,30.19,NNW,345,3.0,11.0,-999,0.00,,,0.00,,weatherlink.com 1.10,2013-03-15 01:50:00,
2013-03-14 19:05:00,-999.0,-99.9,30.19,WNW,298,2.0,7.0,-999,0.00,,,0.00,,weatherlink.com 1.10,2013-03-15 02:05:00,
2013-03-14 19:20:00,52.2,49.0,30.18,NW,321,2.0,5.0,88,0.00,,,0.00,,weatherlink.com 1.10,2013-03-15 02:20:00,
2013-03-14 19:35:00,51.4,48.0,30.18,NW,304,5.0,6.0,88,0.00,,,0.00,,weatherlink.com 1.10,2013-03-15 02:35:00,
2013-03-14 19:50:00,50.8,48.0,30.19,NW,317,0.0,5.0,89,0.00,,,0.00,,weatherlink.com 1.10,2013-03-15 02:50:00,
2013-03-14 20:05:00,50.2,47.0,30.19,NNW,347,0.0,1.0,90,0.00,,,0.00,,weatherlink.com 1.10,2013-03-15 03:05:00,
2013-03-14 20:20:00,49.6,47.0,30.20,NW,317,0.0,3.0,91,0.00,,,0.00,,weatherlink.com 1.10,2013-03-15 03:20:00,
2013-03-14 20:35:00,48.9,47.0,30.20,NW,321,4.0,6.0,92,0.00,,,0.00,,weatherlink.com 1.10,2013-03-15 03:35:00,
2013-03-14 20:50:00,49.1,47.0,30.21,NW,318,2.0,5.0,91,0.00,,,0.00,,weatherlink.com 1.10,2013-03-15 03:50:00,
2013-03-14 21:05:00,48.9,46.0,30.20,NW,316,0.0,2.0,90,0.00,,,0.00,,weatherlink.com 1.10,2013-03-15 04:05:00,
2013-03-14 21:20:00,48.9,46.0,30.20,NW,316,1.0,4.0,89,0.00,,,0.00,,weatherlink.com 1.10,2013-03-15 04:20:00,
2013-03-14 21:35:00,48.5,46.0,30.20,NW,316,0.0,1.0,90,0.00,,,0.00,,weatherlink.com 1.10,2013-03-15 04:35:00,
2013-03-14 21:50:00,48.8,46.0,30.21,NNW,331,5.0,6.0,90,0.00,,,0.00,,weatherlink.com 1.10,2013-03-15 04:50:00,
2013-03-14 22:05:00,48.2,45.0,30.20,NNW,331,0.0,1.0,88,0.00,,,0.00,,weatherlink.com 1.10,2013-03-15 05:05:00,
2013-03-14 22:20:00,47.7,45.0,30.20,NNW,331,3.0,3.0,91,0.00,,,0.00,,weatherlink.com 1.10,2013-03-15 05:20:00,
2013-03-14 22:35:00,48.3,45.0,30.21,NNW,329,3.0,4.0,88,0.00,,,0.00,,weatherlink.com 1.10,2013-03-15 05:35:00,
2013-03-14 22:50:00,47.4,45.0,30.20,NNW,329,0.0,1.0,90,0.00,,,0.00,,weatherlink.com 1.10,2013-03-15 05:50:00,
2013-03-14 23:05:00,46.5,44.0,30.20,NNW,329,0.0,1.0,92,0.00,,,0.00,,weatherlink.com 1.10,2013-03-15 06:05:00,
2013-03-14 23:20:00,46.7,44.0,30.20,NNW,340,2.0,4.0,91,0.00,,,0.00,,weatherlink.com 1.10,2013-03-15 06:20:00,
2013-03-14 23:35:00,46.7,44.0,30.20,NNW,340,1.0,3.0,90,0.00,,,0.00,,weatherlink.com 1.10,2013-03-15 06:35:00,
2013-03-14 23:50:00,47.0,44.0,30.20,NNW,340,1.0,5.0,89,0.00,,,0.00,,weatherlink.com 1.10,2013-03-15 06:50:00,